Location: Antichan
(42.9728°N, 0.6667°E)
Time: 08:52:10
(UTC+00:00)

Sich 1 - Pass Details

Date: 15 August 2020
Orbit: 593 x 626 km, 82.5° (Epoch: 18 September)

Event Time Altitude Azimuth Distance (km) Brightness Sun altitude
Rises 20:00:00 0° 198° (SSW) 2,896 6.4 -10.9°
Reaches altitude 10° 20:02:16 10° 203° (SSW) 1,995 5.6 -11.3°
Maximum altitude 20:06:36 54° 281° (W) 767 3.9 -12.0°
Drops below altitude 10° 20:10:58 10° 359° (N) 2,007 6.1 -12.6°
Sets 20:13:15 0° 4° (N) 2,916 6.9 -13.0°
